Marietta, GA

3:48 PM EST on December 12, 2017 (GMT -0500)
Dobbins Air Force Base

Weather History for KMGE - October, 2013

Change the Weather History Date:

Tuesday, October 1, 2013

  Actual Average Record
Temperature  
Mean Temperature 68 °F -  
Max Temperature 81 °F 74 °F 86 °F (1998)
Min Temperature 57 °F 56 °F 48 °F (1999)
Cooling Degree Days 4    
Growing Degree Days 18 (Base 50)    
Moisture  
Dew Point 59 °F    
Average Humidity 88    
Maximum Humidity 100    
Minimum Humidity 53    
Precipitation  
Precipitation 0.00 in - - ()
Sea Level Pressure  
Sea Level Pressure 30.12 in    
Wind  
Wind Speed 0 mph (NNE)    
Max Wind Speed 5 mph    
Max Gust Speed -    
Visibility 7 miles    
Events      
Averages and records for this station are not official NWS values.
T = Trace of Precipitation, MM = Missing Value Source: NWS Daily Summary

Daily Weather History Graph

Daily Weather History Graph

Search for Another Location

Airport or City:

Trip Planner

Search our weather history database for the weather conditions in past years. The results will help you decide how hot, cold, wet, or windy it might be!

Date:

Astronomy

Oct. 01, 2013 Rise Set
Actual Time 7:32 AM EDT 7:22 PM EDT
Civil Twilight 7:07 AM EDT 7:46 PM EDT
Nautical Twilight 6:38 AM EDT 8:15 PM EDT
Astronomical Twilight 6:09 AM EDT 8:44 PM EDT
Moon 4:14 AM EDT (10/1) 5:18 PM EDT (10/1)
Length of Visible Light 12h 39m
Length of Day
11h 49m
Waning Crescent, 12% of the Moon is Illuminated
Oct 1
Waning Crescent
Oct 4
New
Oct 11
First Quarter
Oct 18
Full
Oct 26
Last Quarter

Hourly Weather History & Observations

Time (EDT) Temp. Heat Index Dew Point Humidity Pressure Visibility Wind Dir Wind Speed Gust Speed Precip Events Conditions
12:58 AM 60.1 °F - 58.6 °F 95% 30.08 in 10.0 mi Calm Calm - N/A   Clear
1:58 AM 60.3 °F - 58.8 °F 95% 30.08 in 10.0 mi Calm Calm - N/A   Clear
2:58 AM 59.2 °F - 58.5 °F 97% 30.08 in 9.0 mi Calm Calm - N/A   Clear
5:36 AM 57.2 °F - 57.2 °F 100% 30.11 in 1.2 mi Calm Calm - N/A   Clear
5:37 AM 57.2 °F - 57.2 °F 100% 30.11 in 1.8 mi Calm Calm - N/A   Clear
5:38 AM 57.2 °F - 57.2 °F 100% 30.11 in 2.0 mi Calm Calm - N/A   Clear
5:43 AM 57.2 °F - 57.2 °F 100% 30.11 in 3.0 mi Calm Calm - N/A   Clear
5:46 AM 57.2 °F - 57.2 °F 100% 30.11 in 4.0 mi Calm Calm - N/A   Clear
5:54 AM 57.2 °F - 57.2 °F 100% 30.12 in 6.0 mi Calm Calm - N/A   Clear
5:58 AM 57.2 °F - 57.2 °F 100% 30.12 in 2.5 mi Calm Calm - N/A   Clear
5:59 AM 57.2 °F - 57.2 °F 100% 30.12 in 2.0 mi Calm Calm - N/A   Clear
6:05 AM 57.2 °F - 57.2 °F 100% 30.12 in 1.8 mi Calm Calm - N/A   Clear
6:06 AM 57.2 °F - 57.2 °F 100% 30.12 in 2.0 mi Calm Calm - N/A   Clear
6:07 AM 57.2 °F - 57.2 °F 100% 30.12 in 2.5 mi Calm Calm - N/A   Clear
6:08 AM 57.2 °F - 57.2 °F 100% 30.12 in 3.0 mi Calm Calm - N/A   Clear
6:15 AM 57.2 °F - 57.2 °F 100% 30.13 in 9.0 mi Calm Calm - N/A   Clear
6:25 AM 57.2 °F - 57.2 °F 100% 30.13 in 4.0 mi Calm Calm - N/A   Clear
6:30 AM 57.2 °F - 57.2 °F 100% 30.13 in 1.8 mi Calm Calm - N/A   Clear
6:35 AM 57.2 °F - 57.2 °F 100% 30.13 in 1.5 mi Calm Calm - N/A   Clear
6:50 AM 57.2 °F - 57.2 °F 100% 30.14 in 1.8 mi Calm Calm - N/A   Clear
6:55 AM 57.2 °F - 57.2 °F 100% 30.14 in 2.0 mi NE 1.2 mph - N/A   Partly Cloudy
6:58 AM 57.2 °F - 57.2 °F 100% 30.13 in 10.0 mi Calm Calm - N/A   Scattered Clouds
7:58 AM 58.8 °F - 58.3 °F 98% 30.15 in 10.0 mi Calm Calm - N/A   Mostly Cloudy
8:58 AM 62.6 °F - 61.0 °F 94% 30.16 in 10.0 mi Calm Calm - N/A   Mostly Cloudy
9:58 AM 67.3 °F - 60.8 °F 80% 30.17 in 10.0 mi Calm Calm - N/A   Partly Cloudy
10:58 AM 71.2 °F - 61.0 °F 70% 30.18 in 10.0 mi SSE 4.6 mph - N/A   Partly Cloudy
11:58 AM 74.1 °F - 61.0 °F 63% 30.17 in 10.0 mi Variable 3.5 mph - N/A   Partly Cloudy
12:58 PM 75.4 °F - 60.8 °F 60% 30.15 in 10.0 mi Variable 1.2 mph - N/A   Scattered Clouds
1:58 PM 78.3 °F - 60.4 °F 54% 30.12 in 10.0 mi Variable 3.5 mph - N/A   Mostly Cloudy
2:58 PM 77.9 °F - 60.6 °F 55% 30.09 in 10.0 mi West 3.5 mph - N/A   Mostly Cloudy
3:58 PM 80.2 °F 81.3 °F 61.7 °F 53% 30.07 in 10.0 mi ENE 1.2 mph - N/A   Mostly Cloudy
4:58 PM 77.9 °F - 60.4 °F 55% 30.06 in 10.0 mi East 3.5 mph - N/A   Mostly Cloudy
5:58 PM 79.2 °F - 60.6 °F 53% 30.08 in 10.0 mi NW 4.6 mph - N/A   Scattered Clouds
6:58 PM 77.2 °F - 61.2 °F 58% 30.09 in 10.0 mi North 1.2 mph - N/A   Scattered Clouds
7:58 PM 71.1 °F - 65.1 °F 81% 30.09 in 10.0 mi WNW 2.3 mph - N/A   Scattered Clouds
8:58 PM 68.9 °F - 63.7 °F 83% 30.11 in 10.0 mi Calm Calm - N/A   Partly Cloudy
9:58 PM 66.7 °F - 63.3 °F 89% 30.13 in 10.0 mi Calm Calm - N/A   Clear
10:58 PM 65.7 °F - 63.5 °F 93% 30.12 in 10.0 mi Calm Calm - N/A   Clear
11:58 PM 63.7 °F - 62.8 °F 97% 30.12 in 10.0 mi East 2.3 mph - N/A   Clear